| time (UTC) | temp F | wind direction | speed MPH | gust MPH | rain 1hr in | rain 24hr in | rain mn in | humidity % | barometer mb |
| 20260903120100 | 73 | 214 | 0.0 | 0.0 | 0.00 | 0.00 | 0.00 | 92 | 1015.1 |
| 20260903111322 | 73 | 214 | 0.0 | 0.0 | 0.00 | 0.00 | 0.00 | 92 | 1015.0 |
| 20260903103626 | 73 | 214 | 0.0 | 0.0 | 0.00 | 0.00 | 0.00 | 92 | 1014.7 |
| 20260903101139 | 73 | 214 | 0.0 | 0.0 | 0.00 | 0.00 | 0.00 | 92 | 1014.7 |
| 20260903100003 | 73 | 214 | 0.0 | 1.0 | 0.00 | 0.00 | 0.00 | 92 | 1014.5 |
| 20260903094758 | 73 | 214 | 0.0 | 0.0 | 0.00 | 0.00 | 0.00 | 92 | 1014.6 |
| 20260903093553 | 74 | 186 | 0.0 | 0.0 | 0.00 | 0.00 | 0.00 | 91 | 1014.6 |
| 20260903092324 | 74 | 186 | 0.0 | 0.0 | 0.00 | 0.00 | 0.00 | 91 | 1014.6 |
| 20260903083521 | 75 | 186 | 0.0 | 0.0 | 0.00 | 0.00 | 0.00 | 90 | 1014.4 |
| 20260903074710 | 77 | 84 | 0.0 | 1.0 | 0.00 | 0.00 | 0.00 | 86 | 1014.2 |
| 20260903072225 | 78 | 114 | 0.0 | 4.0 | 0.00 | 0.00 | 0.00 | 85 | 1014.0 |
| 20260903065812 | 78 | 340 | 0.0 | 4.0 | 0.00 | 0.00 | 0.00 | 86 | 1014.0 |
| 20260903062116 | 78 | 134 | 0.0 | 8.0 | 0.00 | 0.00 | 0.00 | 86 | 1014.2 |
| 20260903060921 | 78 | 111 | 0.0 | 4.0 | 0.00 | 0.00 | 0.00 | 85 | 1014.2 |
| 20260903055650 | 79 | 109 | 0.0 | 8.0 | 0.00 | 0.00 | 0.00 | 85 | 1014.3 |
| 20260903050816 | 78 | 125 | 0.0 | 3.0 | 0.00 | 0.00 | 0.00 | 88 | 1013.9 |
| 20260903043224 | 77 | 242 | 0.0 | 2.0 | 0.00 | 0.00 | 0.00 | 90 | 1013.7 |
| 20260903033211 | 78 | 230 | 0.0 | 0.0 | 0.00 | 0.00 | 0.00 | 89 | 1013.9 |
| 20260903031953 | 78 | 230 | 0.0 | 1.0 | 0.00 | 0.00 | 0.00 | 89 | 1014.0 |
| 20260903030753 | 78 | 230 | 0.0 | 0.0 | 0.00 | 0.00 | 0.00 | 89 | 1014.0 |
| 20260903022032 | 78 | 243 | 0.0 | 0.0 | 0.00 | 0.00 | 0.00 | 90 | 1014.0 |
| 20260903014328 | 79 | 243 | 0.0 | 1.0 | 0.00 | 0.00 | 0.00 | 88 | 1013.9 |
| 20260903013122 | 80 | 243 | 0.0 | 0.0 | 0.00 | 0.00 | 0.00 | 88 | 1013.9 |
| 20260903011931 | 80 | 236 | 0.0 | 0.0 | 0.00 | 0.00 | 0.00 | 87 | 1013.8 |
| 20260903005521 | 81 | 263 | 0.0 | 0.0 | 0.00 | 0.00 | 0.00 | 87 | 1013.5 |
| 20260902235536 | 82 | 173 | 0.0 | 0.0 | 0.00 | 0.00 | 0.00 | 86 | 1013.6 |
| 20260902234347 | 83 | 173 | 0.0 | 0.0 | 0.00 | 0.00 | 0.00 | 85 | 1013.6 |
| 20260902233154 | 84 | 173 | 0.0 | 0.0 | 0.00 | 0.00 | 0.00 | 85 | 1013.6 |
| 20260902225531 | 86 | 173 | 0.0 | 0.0 | 0.00 | 0.00 | 0.00 | 80 | 1013.6 |
| 20260902224251 | 88 | 178 | 0.0 | 2.0 | 0.00 | 0.00 | 0.00 | 77 | 1013.6 |
| 20260902221837 | 89 | 62 | 0.0 | 0.0 | 0.00 | 0.00 | 0.00 | 78 | 1013.6 |
| 20260902215413 | 90 | 192 | 0.0 | 4.0 | 0.00 | 0.00 | 0.00 | 72 | 1013.6 |
| 20260902211839 | 92 | 59 | 0.0 | 6.0 | 0.00 | 0.00 | 0.00 | 68 | 1013.8 |
| 20260902205400 | 93 | 246 | 0.0 | 7.0 | 0.00 | 0.00 | 0.00 | 64 | 1013.8 |
| 20260902200520 | 93 | 68 | 1.0 | 11.0 | 0.00 | 0.00 | 0.00 | 66 | 1014.1 |
| 20260902195330 | 93 | 267 | 1.0 | 11.0 | 0.00 | 0.00 | 0.00 | 65 | 1014.1 |
| 20260902184124 | 93 | 72 | 1.0 | 6.0 | 0.00 | 0.00 | 0.00 | 66 | 1014.6 |
| 20260902180526 | 92 | 291 | 1.0 | 9.0 | 0.00 | 0.00 | 0.00 | 64 | 1014.9 |
| 20260902175308 | 92 | 164 | 1.0 | 8.0 | 0.00 | 0.00 | 0.00 | 65 | 1015.0 |
| 20260902171634 | 91 | 212 | 1.0 | 9.0 | 0.00 | 0.00 | 0.00 | 70 | 1015.3 |
| 20260902170404 | 91 | 89 | 1.0 | 8.0 | 0.00 | 0.00 | 0.00 | 67 | 1015.4 |
| 20260902165156 | 91 | 127 | 1.0 | 8.0 | 0.00 | 0.00 | 0.00 | 68 | 1015.5 |
| 20260902163928 | 90 | 173 | 1.0 | 7.0 | 0.00 | 0.00 | 0.00 | 67 | 1015.6 |
| 20260902162649 | 90 | 67 | 1.0 | 8.0 | 0.00 | 0.00 | 0.00 | 71 | 1015.7 |
| 20260902161455 | 89 | 147 | 1.0 | 9.0 | 0.00 | 0.00 | 0.00 | 69 | 1015.8 |
| 20260902153807 | 88 | 217 | 1.0 | 8.0 | 0.00 | 0.00 | 0.00 | 72 | 1015.8 |
| 20260902143826 | 85 | 319 | 0.0 | 4.0 | 0.00 | 0.00 | 0.00 | 77 | 1015.9 |
| 20260902133657 | 79 | 173 | 0.0 | 4.0 | 0.00 | 0.00 | 0.00 | 85 | 1016.0 |
| 20260902132458 | 77 | 53 | 0.0 | 4.0 | 0.00 | 0.00 | 0.00 | 91 | 1016.3 |
| 20260902131317 | 76 | 151 | 0.0 | 0.0 | 0.00 | 0.00 | 0.00 | 93 | 1016.4 |
| 20260902123653 | 73 | 257 | 0.0 | 2.0 | 0.00 | 0.00 | 0.00 | 94 | 1016.2 |